Change the Weather History Date:

Monday, February 17, 2014

  Actual Average Record
Temperature  
Mean Temperature 15 °F -  
Max Temperature 19 °F 30 °F - ()
Min Temperature 11 °F 15 °F - ()
Degree Days  
Heating Degree Days 50    
Moisture  
Dew Point 11 °F    
Average Humidity 79    
Maximum Humidity 93    
Minimum Humidity 62    
Precipitation  
Precipitation 0.03 in 0.12 in - ()
Sea Level Pressure  
Sea Level Pressure 29.79 in    
Wind  
Wind Speed 12 mph ()    
Max Wind Speed 17 mph    
Max Gust Speed 29 mph    
Visibility 7.6 miles    
Events Snow    
T = Trace of Precipitation, MM = Missing Value Source: Averaged Metar Reports

Daily Weather History Graph

Daily Weather History Graph

Search for Another Location

Airport or City:

Trip Planner

Search our weather history database for the weather conditions in past years. The results will help you decide how hot, cold, wet, or windy it might be!

Date:

Astronomy

Feb. 17, 2014 Rise Set
Actual Time 7:12 AM AST 5:41 PM AST
Civil Twilight 6:41 AM AST 6:11 PM AST
Nautical Twilight 6:06 AM AST 6:47 PM AST
Astronomical Twilight 5:31 AM AST 7:21 PM AST
Moon 8:44 PM AST (2/17) 8:00 AM AST (2/17)
Length of Visible Light 11h 30m
Length of Day
10h 28m
Waning Gibbous, 93% of the Moon is Illuminated
Feb 17
Waning Gibbous
Feb 22
Last Quarter
Mar 1
New
Mar 8
First Quarter
Mar 16
Full

Hourly Weather History & Observations

Time (AST) Temp. Windchill Dew Point Humidity Pressure Visibility Wind Dir Wind Speed Gust Speed Precip Events Conditions
12:00 AM 15.8 °F -0.2 °F 8.6 °F 73% 29.52 in 8.0 mi West 17.3 mph 26.5 mph N/A Snow Light Snow Showers
1:00 AM 14.0 °F -2.5 °F 8.6 °F 79% 29.54 in 12.0 mi West 17.3 mph 28.8 mph N/A Snow Low Drifting Snow
2:00 AM 13 °F - 7 °F 65% 29.56 in 15 mi West 12.7 mph - - Snow Low Drifting Snow
2:00 AM 12.2 °F -3.1 °F 6.8 °F 79% 29.56 in 15.0 mi West 13.8 mph - N/A Snow Low Drifting Snow
3:00 AM 12.2 °F -3.1 °F 6.8 °F 79% 29.58 in 15.0 mi West 13.8 mph 21.9 mph N/A Snow Low Drifting Snow
4:00 AM 12.2 °F -4.3 °F 6.8 °F 79% 29.60 in 15.0 mi West 16.1 mph 23.0 mph N/A Snow Low Drifting Snow
5:00 AM 12.2 °F -1.8 °F 6.8 °F 79% 29.61 in 15.0 mi West 11.5 mph 20.7 mph N/A Snow Low Drifting Snow
5:41 AM 12.2 °F -1.8 °F 6.8 °F 79% 29.63 in 15.0 mi West 11.5 mph - N/A Snow Light Snow Showers
6:00 AM 12.2 °F -2.5 °F 6.8 °F 79% 29.63 in 10.0 mi West 12.7 mph 18.4 mph N/A Snow Light Snow Showers
7:00 AM 12.2 °F -1.0 °F 6.8 °F 79% 29.65 in 12.0 mi West 10.4 mph - N/A Snow Light Snow Showers
8:00 AM 12 °F - 6 °F 68% 29.68 in 15 mi West 9.2 mph - - Snow Light Snow Showers
8:00 AM 12.2 °F -0.2 °F 6.8 °F 79% 29.68 in 15.0 mi West 9.2 mph - N/A Snow Light Snow Showers
9:00 AM 12.2 °F -2.5 °F 3.2 °F 67% 29.70 in 15.0 mi West 12.7 mph 19.6 mph N/A Snow Light Snow Showers
10:00 AM 12.2 °F -1.0 °F 3.2 °F 67% 29.73 in 15.0 mi WNW 10.4 mph 18.4 mph N/A Snow Low Drifting Snow
11:00 AM 14.0 °F -0.8 °F 5.0 °F 67% 29.75 in 15.0 mi NW 13.8 mph 19.6 mph N/A Snow Low Drifting Snow
12:00 PM 15.8 °F 0.9 °F 5.0 °F 62% 29.75 in 15.0 mi WNW 15.0 mph 23.0 mph N/A Snow Low Drifting Snow
12:36 PM 15.8 °F 1.4 °F 6.8 °F 68% 29.75 in 12.0 mi WNW 13.8 mph 21.9 mph N/A Snow Light Snow Showers
1:00 PM 15.8 °F 2.7 °F 8.6 °F 73% 29.76 in 8.0 mi WNW 11.5 mph - N/A Snow Light Snow Showers
1:35 PM 15.8 °F 2.1 °F 10.4 °F 79% 29.77 in 2.5 mi WNW 12.7 mph 21.9 mph N/A Snow Light Snow Showers
2:00 PM 17 °F - 11 °F 67% 29.78 in 2 mi WNW 12.7 mph - - Snow Light Snow Showers
2:00 PM 15.8 °F 2.7 °F 10.4 °F 79% 29.78 in 2.5 mi WNW 11.5 mph 23.0 mph N/A Snow Light Snow Showers
2:41 PM 17.6 °F 4.3 °F 14.0 °F 86% 29.80 in 1.2 mi WNW 12.7 mph 19.6 mph N/A Snow Light Snow Showers
3:00 PM 17.6 °F 5.0 °F 14.0 °F 86% 29.81 in 1.2 mi WNW 11.5 mph 19.6 mph N/A Snow Light Snow Showers
3:19 PM 17.6 °F 5.0 °F 14.0 °F 86% 29.82 in 0.8 mi NW 11.5 mph 18.4 mph N/A Snow Light Snow Showers
4:00 PM 17.6 °F 5.0 °F 14.0 °F 86% 29.84 in 0.8 mi WNW 11.5 mph 18.4 mph N/A Snow Light Snow Showers
4:27 PM 17.6 °F 4.3 °F 15.8 °F 93% 29.85 in 1.5 mi NW 12.7 mph 21.9 mph N/A Snow Light Snow Showers
4:46 PM 17.6 °F 5.7 °F 15.8 °F 93% 29.86 in 2.5 mi NW 10.4 mph 18.4 mph N/A Snow Light Snow Showers
5:00 PM 17.6 °F 4.3 °F 15.8 °F 93% 29.87 in 2.0 mi NW 12.7 mph 19.6 mph N/A Snow Light Snow Showers
5:16 PM 19.4 °F 9.5 °F 15.8 °F 86% 29.88 in 0.8 mi NW 8.1 mph - N/A Snow Light Snow Showers
5:51 PM 19.4 °F 7.2 °F 15.8 °F 86% 29.91 in 2.5 mi NNW 11.5 mph 18.4 mph N/A Snow Light Snow Showers
6:00 PM 19.4 °F 7.2 °F 15.8 °F 86% 29.92 in 3.0 mi NNW 11.5 mph 18.4 mph N/A Snow Light Snow Showers
7:00 PM 19.4 °F 9.5 °F 15.8 °F 86% 29.96 in 4.0 mi NNW 8.1 mph 19.6 mph N/A Snow Light Snow Showers
8:00 PM 19 °F - 16 °F 82% 30.00 in 3 mi NNW 12.7 mph - - Snow Light Snow Showers
8:00 PM 19.4 °F 6.0 °F 15.8 °F 86% 30.00 in 3.0 mi NNW 13.8 mph 24.2 mph N/A Snow Light Snow Showers
8:06 PM 19.4 °F 7.2 °F 15.8 °F 86% 30.00 in 2.0 mi NNW 11.5 mph 19.6 mph N/A Snow Light Snow Showers
9:00 PM 19.4 °F 5.5 °F 15.8 °F 86% 30.04 in 2.0 mi NW 15.0 mph 23.0 mph N/A Snow Light Snow Showers
10:00 PM 19.4 °F 8.6 °F 15.8 °F 86% 30.07 in 3.0 mi NNW 9.2 mph 19.6 mph N/A Snow Light Snow Showers
11:00 PM 19.4 °F 5.0 °F 12.2 °F 74% 30.10 in 5.0 mi NNW 16.1 mph 24.2 mph N/A Snow Light Snow Showers
11:15 PM 19.4 °F 5.5 °F 12.2 °F 74% 30.10 in 10.0 mi NNW 15.0 mph 26.5 mph N/A Snow Light Snow Showers